WZZ98QU EKCH-EPWA

Flight info

Callsign WZZ98QU
Flight time 1h 1m
Altitude 35000
Route SIMEG Z491 TELMO DCT KOLOB N195 ELPOL Y100 MALOX/N0353F230 L621 GRUDA N191 SORIX
Aircraft A21N/M-SDE1E2E3FGIJ1J4RWXY/LB1

Departure

Time 2026-04-26 09:21
Airport Copenhagen Kastrup Airport (EKCH)

Arrival

Time 2026-04-26 10:23
Airport Warsaw Chopin Airport (EPWA)
Time Latitude Longitude Altitude Speed Heading
2026-04-26 08:37 55.62510 12.65684 22 ft 0 kts 359°
2026-04-26 09:12 55.62490 12.65685 22 ft 4 kts 359°
2026-04-26 09:12 55.62468 12.65686 24 ft 4 kts 355°
2026-04-26 09:12 55.62447 12.65700 22 ft 4 kts 300°
2026-04-26 09:12 55.62443 12.65726 22 ft 3 kts 269°
2026-04-26 09:13 55.62442 12.65679 22 ft 4 kts 269°
2026-04-26 09:13 55.62442 12.65631 22 ft 4 kts 269°
2026-04-26 09:13 55.62441 12.65584 22 ft 4 kts 269°
2026-04-26 09:13 55.62440 12.65536 22 ft 4 kts 269°
2026-04-26 09:14 55.62440 12.65508 22 ft 0 kts 269°
2026-04-26 09:16 55.62440 12.65488 22 ft 3 kts 269°
2026-04-26 09:16 55.62439 12.65436 22 ft 5 kts 269°
2026-04-26 09:16 55.62429 12.65360 25 ft 8 kts 232°
2026-04-26 09:16 55.62372 12.65331 22 ft 10 kts 181°
2026-04-26 09:17 55.62302 12.65303 22 ft 12 kts 238°
2026-04-26 09:17 55.62276 12.65218 22 ft 13 kts 212°
2026-04-26 09:17 55.62160 12.65126 24 ft 15 kts 213°
2026-04-26 09:17 55.62070 12.65023 26 ft 16 kts 213°
2026-04-26 09:18 55.61973 12.64910 24 ft 17 kts 213°
2026-04-26 09:18 55.61869 12.64790 23 ft 18 kts 213°
2026-04-26 09:18 55.61759 12.64663 24 ft 19 kts 212°
2026-04-26 09:18 55.61642 12.64530 22 ft 21 kts 213°
2026-04-26 09:19 55.61519 12.64388 23 ft 22 kts 213°
2026-04-26 09:19 55.61389 12.64239 24 ft 23 kts 213°
2026-04-26 09:19 55.61254 12.64084 23 ft 24 kts 213°
2026-04-26 09:19 55.61114 12.63923 22 ft 25 kts 213°
2026-04-26 09:20 55.60992 12.63782 23 ft 20 kts 213°
2026-04-26 09:20 55.60870 12.63642 22 ft 21 kts 213°
2026-04-26 09:20 55.60760 12.63637 22 ft 18 kts 133°
2026-04-26 09:20 55.60685 12.63825 24 ft 20 kts 85°
2026-04-26 09:21 55.60820 12.64090 25 ft 58 kts 41°
2026-04-26 09:21 55.61308 12.64851 24 ft 128 kts 41°
2026-04-26 09:21 55.62072 12.66046 329 ft 151 kts 39°
2026-04-26 09:21 55.62837 12.67294 985 ft 149 kts 39°
2026-04-26 09:22 55.63682 12.68539 1357 ft 167 kts 35°
2026-04-26 09:22 55.64591 12.69984 1807 ft 184 kts 38°
2026-04-26 09:22 55.65595 12.71555 2324 ft 201 kts 37°
2026-04-26 09:22 55.66703 12.73195 2901 ft 216 kts 36°
2026-04-26 09:23 55.67918 12.74988 3323 ft 238 kts 37°
2026-04-26 09:23 55.69166 12.77035 4019 ft 251 kts 47°
2026-04-26 09:23 55.70001 12.79746 4886 ft 260 kts 71°
2026-04-26 09:23 55.70125 12.83014 5801 ft 270 kts 96°
2026-04-26 09:24 55.69428 12.86127 6662 ft 279 kts 123°
2026-04-26 09:24 55.67988 12.88455 7406 ft 287 kts 151°
2026-04-26 09:24 55.66115 12.89791 8129 ft 294 kts 162°
2026-04-26 09:24 55.64144 12.90920 8857 ft 301 kts 162°
2026-04-26 09:25 55.62094 12.91812 9546 ft 306 kts 177°
2026-04-26 09:25 55.59990 12.91447 10231 ft 305 kts 203°
2026-04-26 09:25 55.58151 12.89638 10687 ft 306 kts 227°
2026-04-26 09:25 55.56632 12.86899 11017 ft 320 kts 234°
2026-04-26 09:26 55.55103 12.83902 11433 ft 334 kts 234°
2026-04-26 09:26 55.53478 12.80899 12083 ft 344 kts 229°
2026-04-26 09:26 55.51441 12.78534 12786 ft 361 kts 208°
2026-04-26 09:26 55.48966 12.77457 13476 ft 376 kts 188°
2026-04-26 09:27 55.46323 12.77750 14166 ft 385 kts 174°
2026-04-26 09:27 55.44562 12.78261 14572 ft 389 kts 172°
2026-04-26 09:27 55.41880 12.79057 15184 ft 393 kts 173°
2026-04-26 09:27 55.39159 12.79788 15784 ft 398 kts 173°
2026-04-26 09:28 55.36480 12.81180 16371 ft 406 kts 155°
2026-04-26 09:28 55.34114 12.83903 16922 ft 410 kts 135°
2026-04-26 09:28 55.32316 12.87752 17458 ft 407 kts 115°
2026-04-26 09:28 55.31278 12.92304 18014 ft 398 kts 95°
2026-04-26 09:29 55.30868 12.97082 18594 ft 397 kts 89°
2026-04-26 09:29 55.30519 13.01920 19107 ft 402 kts 90°
2026-04-26 09:29 55.30074 13.06799 19620 ft 408 kts 92°
2026-04-26 09:29 55.29547 13.11722 20126 ft 413 kts 94°
2026-04-26 09:30 55.28977 13.16683 20607 ft 417 kts 94°
2026-04-26 09:30 55.28384 13.21683 21098 ft 421 kts 95°
2026-04-26 09:30 55.27780 13.26725 21587 ft 424 kts 95°
2026-04-26 09:30 55.27171 13.31809 22069 ft 428 kts 95°
2026-04-26 09:31 55.26554 13.36936 22581 ft 432 kts 94°
2026-04-26 09:31 55.25929 13.42112 23013 ft 436 kts 94°
2026-04-26 09:31 55.25274 13.47332 23456 ft 442 kts 97°
2026-04-26 09:31 55.24236 13.52477 23880 ft 455 kts 109°
2026-04-26 09:32 55.22758 13.57431 24266 ft 461 kts 114°
2026-04-26 09:32 55.21181 13.62346 24651 ft 465 kts 115°
2026-04-26 09:32 55.19603 13.67220 25018 ft 468 kts 115°
2026-04-26 09:32 55.18006 13.72202 25391 ft 470 kts 115°
2026-04-26 09:33 55.16414 13.77222 25749 ft 473 kts 114°
2026-04-26 09:33 55.14823 13.82283 26118 ft 476 kts 115°
2026-04-26 09:33 55.13217 13.87368 26489 ft 480 kts 114°
2026-04-26 09:33 55.11597 13.92486 26751 ft 484 kts 114°
2026-04-26 09:34 55.09943 13.97649 27055 ft 488 kts 115°
2026-04-26 09:34 55.08271 14.02828 27389 ft 491 kts 115°
2026-04-26 09:34 55.06590 14.08039 27718 ft 494 kts 115°
2026-04-26 09:34 55.04964 14.13321 28048 ft 494 kts 111°
2026-04-26 09:35 55.03466 14.18723 28349 ft 496 kts 111°
2026-04-26 09:35 55.01970 14.24160 28655 ft 499 kts 111°
2026-04-26 09:35 55.00465 14.29634 28954 ft 502 kts 111°
2026-04-26 09:35 54.98947 14.35129 29276 ft 505 kts 110°
2026-04-26 09:36 54.97413 14.40653 29509 ft 509 kts 111°
2026-04-26 09:36 54.95867 14.46204 29757 ft 511 kts 111°
2026-04-26 09:36 54.94306 14.51789 30026 ft 514 kts 111°
2026-04-26 09:36 54.92732 14.57382 30290 ft 516 kts 111°
2026-04-26 09:37 54.91150 14.63006 30521 ft 518 kts 111°
2026-04-26 09:37 54.89562 14.68638 30767 ft 521 kts 112°
2026-04-26 09:37 54.87702 14.74081 31012 ft 526 kts 121°
2026-04-26 09:37 54.85649 14.79330 31284 ft 527 kts 122°
2026-04-26 09:38 54.83559 14.84584 31559 ft 530 kts 121°
2026-04-26 09:38 54.81470 14.89863 31763 ft 532 kts 121°
2026-04-26 09:38 54.79380 14.95171 31980 ft 534 kts 121°
2026-04-26 09:38 54.77293 15.00492 32202 ft 535 kts 121°
2026-04-26 09:39 54.75199 15.05831 32439 ft 536 kts 121°
2026-04-26 09:39 54.73108 15.11177 32715 ft 536 kts 121°
2026-04-26 09:39 54.71017 15.16509 33008 ft 535 kts 121°
2026-04-26 09:39 54.68924 15.21825 33291 ft 534 kts 121°
2026-04-26 09:40 54.66826 15.27117 33618 ft 534 kts 121°
2026-04-26 09:40 54.64726 15.32400 33815 ft 534 kts 121°
2026-04-26 09:40 54.62623 15.37693 33985 ft 535 kts 121°
2026-04-26 09:40 54.60517 15.42992 34194 ft 535 kts 121°
2026-04-26 09:41 54.58408 15.48280 34417 ft 535 kts 121°
2026-04-26 09:41 54.56301 15.53546 34641 ft 533 kts 121°
2026-04-26 09:41 54.54199 15.58798 34859 ft 532 kts 121°
2026-04-26 09:41 54.52105 15.64045 35059 ft 531 kts 121°
2026-04-26 09:42 54.50051 15.69220 35226 ft 530 kts 121°
2026-04-26 09:42 54.47967 15.74440 35472 ft 528 kts 121°
2026-04-26 09:42 54.45851 15.79684 35683 ft 526 kts 121°
2026-04-26 09:42 54.43790 15.84765 35862 ft 525 kts 121°
2026-04-26 09:43 54.41700 15.89914 36052 ft 525 kts 121°
2026-04-26 09:43 54.39618 15.95042 36228 ft 524 kts 121°
2026-04-26 09:43 54.37537 16.00160 36414 ft 523 kts 122°
2026-04-26 09:43 54.35458 16.05263 36589 ft 522 kts 122°
2026-04-26 09:44 54.33378 16.10348 36741 ft 521 kts 122°
2026-04-26 09:44 54.31296 16.15429 36922 ft 520 kts 122°
2026-04-26 09:44 54.29220 16.20491 37048 ft 520 kts 121°
2026-04-26 09:44 54.27136 16.25553 37163 ft 520 kts 121°
2026-04-26 09:45 54.25056 16.30607 37305 ft 520 kts 121°
2026-04-26 09:45 54.20899 16.40661 37311 ft 517 kts 122°
2026-04-26 09:46 54.16748 16.50665 37283 ft 517 kts 122°
2026-04-26 09:46 54.12587 16.60677 37323 ft 517 kts 122°
2026-04-26 09:47 54.08408 16.70662 37248 ft 517 kts 122°
2026-04-26 09:47 54.04225 16.80608 37267 ft 517 kts 122°
2026-04-26 09:48 54.00033 16.90552 37252 ft 517 kts 122°
2026-04-26 09:48 53.95838 17.00483 37252 ft 517 kts 122°
2026-04-26 09:49 53.91631 17.10370 37278 ft 518 kts 122°
2026-04-26 09:49 53.87435 17.20201 37249 ft 518 kts 122°
2026-04-26 09:50 53.83206 17.30089 37236 ft 517 kts 122°
2026-04-26 09:50 53.78984 17.39905 37224 ft 514 kts 122°
2026-04-26 09:51 53.74786 17.49620 37259 ft 510 kts 122°
2026-04-26 09:51 53.70576 17.59332 37194 ft 516 kts 122°
2026-04-26 09:52 53.66317 17.69137 37221 ft 520 kts 123°
2026-04-26 09:52 53.59894 17.83839 37213 ft 519 kts 123°
2026-04-26 09:53 53.55602 17.93587 37245 ft 515 kts 123°
2026-04-26 09:53 53.51359 18.03207 37213 ft 514 kts 123°
2026-04-26 09:54 53.49225 18.08029 37090 ft 512 kts 123°
2026-04-26 09:54 53.47087 18.12856 36746 ft 518 kts 123°
2026-04-26 09:54 53.44932 18.17723 36485 ft 521 kts 123°
2026-04-26 09:54 53.42769 18.22587 36205 ft 521 kts 123°
2026-04-26 09:55 53.40597 18.27450 35947 ft 520 kts 123°
2026-04-26 09:55 53.38428 18.32304 35739 ft 521 kts 122°
2026-04-26 09:55 53.36260 18.37159 35489 ft 521 kts 122°
2026-04-26 09:55 53.34084 18.42012 35239 ft 521 kts 122°
2026-04-26 09:56 53.31901 18.46847 34947 ft 520 kts 122°
2026-04-26 09:56 53.29724 18.51645 34456 ft 516 kts 122°
2026-04-26 09:56 53.27566 18.56401 33928 ft 513 kts 122°
2026-04-26 09:56 53.25421 18.61141 33390 ft 510 kts 122°
2026-04-26 09:57 53.23290 18.65853 32879 ft 506 kts 122°
2026-04-26 09:57 53.21174 18.70525 32360 ft 503 kts 122°
2026-04-26 09:57 53.19068 18.75170 31873 ft 501 kts 122°
2026-04-26 09:57 53.16971 18.79791 31355 ft 499 kts 122°
2026-04-26 09:58 53.14877 18.84397 30849 ft 497 kts 122°
2026-04-26 09:58 53.12791 18.88974 30366 ft 495 kts 122°
2026-04-26 09:58 53.10710 18.93526 29821 ft 493 kts 122°
2026-04-26 09:58 53.08638 18.98057 29255 ft 491 kts 121°
2026-04-26 09:59 53.06579 19.02564 28730 ft 488 kts 121°
2026-04-26 09:59 53.04532 19.07028 28252 ft 484 kts 121°
2026-04-26 09:59 53.02496 19.11453 27779 ft 481 kts 122°
2026-04-26 09:59 53.00465 19.15856 27361 ft 479 kts 121°
2026-04-26 10:00 52.98443 19.20230 26856 ft 477 kts 121°
2026-04-26 10:00 52.96425 19.24589 26355 ft 475 kts 121°
2026-04-26 10:00 52.94413 19.28917 25880 ft 472 kts 121°
2026-04-26 10:00 52.92409 19.33222 25430 ft 470 kts 121°
2026-04-26 10:01 52.90420 19.37499 24909 ft 468 kts 122°
2026-04-26 10:01 52.88439 19.41747 24450 ft 466 kts 121°
2026-04-26 10:01 52.86462 19.45994 23992 ft 464 kts 121°
2026-04-26 10:01 52.84491 19.50212 23504 ft 463 kts 121°
2026-04-26 10:02 52.82520 19.54411 23031 ft 461 kts 122°
2026-04-26 10:02 52.80561 19.58577 22514 ft 458 kts 122°
2026-04-26 10:02 52.78610 19.62730 22001 ft 456 kts 121°
2026-04-26 10:02 52.76669 19.66845 21514 ft 452 kts 121°
2026-04-26 10:03 52.74746 19.70920 21028 ft 447 kts 121°
2026-04-26 10:03 52.72868 19.74887 20573 ft 442 kts 121°
2026-04-26 10:03 52.70989 19.78867 20142 ft 437 kts 121°
2026-04-26 10:03 52.69183 19.82849 19707 ft 427 kts 114°
2026-04-26 10:04 52.67726 19.87014 19392 ft 415 kts 110°
2026-04-26 10:04 52.66326 19.91106 19126 ft 405 kts 110°
2026-04-26 10:04 52.64942 19.95116 18884 ft 402 kts 110°
2026-04-26 10:04 52.63558 19.99104 18584 ft 399 kts 110°
2026-04-26 10:05 52.62185 20.03050 18213 ft 396 kts 110°
2026-04-26 10:05 52.60814 20.06973 17810 ft 395 kts 111°
2026-04-26 10:05 52.59448 20.10874 17424 ft 392 kts 111°
2026-04-26 10:05 52.58090 20.14751 17037 ft 391 kts 111°
2026-04-26 10:06 52.56739 20.18612 16653 ft 389 kts 111°
2026-04-26 10:06 52.55391 20.22455 16292 ft 387 kts 112°
2026-04-26 10:06 52.54044 20.26285 15938 ft 386 kts 112°
2026-04-26 10:06 52.52697 20.30098 15589 ft 386 kts 112°
2026-04-26 10:07 52.51352 20.33893 15258 ft 382 kts 113°
2026-04-26 10:07 52.50041 20.37628 14956 ft 373 kts 112°
2026-04-26 10:07 52.48779 20.41263 14748 ft 361 kts 112°
2026-04-26 10:07 52.47546 20.44811 14400 ft 356 kts 112°
2026-04-26 10:08 52.46328 20.48317 14029 ft 351 kts 113°
2026-04-26 10:08 52.45123 20.51776 13570 ft 347 kts 113°
2026-04-26 10:08 52.43934 20.55189 13126 ft 342 kts 114°
2026-04-26 10:08 52.42763 20.58541 12753 ft 337 kts 114°
2026-04-26 10:09 52.41601 20.61859 12396 ft 334 kts 114°
2026-04-26 10:09 52.40836 20.64045 12147 ft 333 kts 115°
2026-04-26 10:09 52.39293 20.68433 11689 ft 331 kts 115°
2026-04-26 10:09 52.38154 20.71663 11342 ft 324 kts 116°
2026-04-26 10:10 52.37032 20.74844 11008 ft 324 kts 116°
2026-04-26 10:10 52.35916 20.78011 10699 ft 319 kts 117°
2026-04-26 10:10 52.34812 20.81137 10380 ft 316 kts 117°
2026-04-26 10:10 52.33721 20.84221 10062 ft 312 kts 118°
2026-04-26 10:11 52.32635 20.87286 9718 ft 310 kts 118°
2026-04-26 10:11 52.31560 20.90335 9349 ft 308 kts 117°
2026-04-26 10:11 52.30485 20.93366 9001 ft 307 kts 118°
2026-04-26 10:11 52.29418 20.96358 8675 ft 304 kts 118°
2026-04-26 10:12 52.28363 20.99323 8369 ft 299 kts 118°
2026-04-26 10:12 52.27216 21.02140 8042 ft 297 kts 130°
2026-04-26 10:12 52.25647 21.04264 7738 ft 292 kts 150°
2026-04-26 10:12 52.23865 21.05828 7449 ft 289 kts 154°
2026-04-26 10:13 52.22080 21.07309 7161 ft 288 kts 154°
2026-04-26 10:13 52.20311 21.08787 6947 ft 282 kts 154°
2026-04-26 10:13 52.18608 21.10226 6788 ft 271 kts 154°
2026-04-26 10:13 52.16940 21.11650 6780 ft 270 kts 154°
2026-04-26 10:14 52.15293 21.13058 6530 ft 267 kts 153°
2026-04-26 10:14 52.14180 21.14016 6198 ft 269 kts 153°
2026-04-26 10:14 52.12549 21.15445 5757 ft 271 kts 152°
2026-04-26 10:14 52.10888 21.16901 5360 ft 271 kts 152°
2026-04-26 10:15 52.09232 21.18351 4981 ft 270 kts 152°
2026-04-26 10:15 52.07580 21.19794 4593 ft 269 kts 152°
2026-04-26 10:15 52.05937 21.21229 4234 ft 267 kts 153°
2026-04-26 10:15 52.04313 21.22645 3991 ft 263 kts 153°
2026-04-26 10:16 52.02703 21.24048 3950 ft 262 kts 153°
2026-04-26 10:16 52.01048 21.25240 3954 ft 259 kts 170°
2026-04-26 10:16 51.99289 21.25319 3969 ft 250 kts 198°
2026-04-26 10:16 51.97741 21.24255 3981 ft 236 kts 224°
2026-04-26 10:17 51.96638 21.22395 3985 ft 224 kts 246°
2026-04-26 10:17 51.96063 21.20130 3988 ft 213 kts 266°
2026-04-26 10:17 51.96008 21.17780 3990 ft 207 kts 283°
2026-04-26 10:17 51.96402 21.15571 3993 ft 203 kts 297°
2026-04-26 10:18 51.97176 21.13711 3992 ft 199 kts 319°
2026-04-26 10:18 51.98317 21.12444 3999 ft 200 kts 331°
2026-04-26 10:18 51.99577 21.11495 3937 ft 199 kts 330°
2026-04-26 10:18 52.00802 21.10448 3730 ft 198 kts 330°
2026-04-26 10:19 52.02000 21.09409 3472 ft 192 kts 330°
2026-04-26 10:19 52.03155 21.08407 3207 ft 184 kts 330°
2026-04-26 10:19 52.04254 21.07452 2950 ft 175 kts 330°
2026-04-26 10:19 52.05318 21.06526 2713 ft 174 kts 330°
2026-04-26 10:20 52.06355 21.05625 2515 ft 162 kts 330°
2026-04-26 10:20 52.07322 21.04783 2270 ft 152 kts 330°
2026-04-26 10:20 52.08207 21.04012 2037 ft 137 kts 330°
2026-04-26 10:20 52.09017 21.03304 1873 ft 130 kts 329°
2026-04-26 10:21 52.09812 21.02591 1707 ft 130 kts 330°
2026-04-26 10:21 52.10622 21.01922 1551 ft 129 kts 331°
2026-04-26 10:21 52.11417 21.01232 1341 ft 131 kts 329°
2026-04-26 10:21 52.12205 21.00518 1124 ft 127 kts 329°
2026-04-26 10:22 52.12988 20.99850 880 ft 129 kts 329°
2026-04-26 10:22 52.13772 20.99179 704 ft 125 kts 327°
2026-04-26 10:22 52.14549 20.98484 519 ft 130 kts 328°
2026-04-26 10:22 52.15349 20.97790 407 ft 129 kts 328°
2026-04-26 10:23 52.16110 20.97115 346 ft 115 kts 330°
2026-04-26 10:23 52.16693 20.96600 347 ft 69 kts 331°
2026-04-26 10:23 52.16956 20.96368 345 ft 31 kts 332°
2026-04-26 10:23 52.17164 20.96246 345 ft 33 kts 353°
2026-04-26 10:24 52.17305 20.96247 351 ft 11 kts
2026-04-26 10:24 52.17386 20.96273 349 ft 13 kts 45°
2026-04-26 10:24 52.17438 20.96366 344 ft 10 kts 56°
2026-04-26 10:24 52.17482 20.96474 349 ft 12 kts 59°
2026-04-26 10:25 52.17544 20.96544 350 ft 13 kts 346°
2026-04-26 10:25 52.17567 20.96489 348 ft 7 kts 261°
2026-04-26 10:25 52.17544 20.96409 353 ft 7 kts 242°
2026-04-26 10:25 52.17536 20.96384 344 ft 0 kts 241°